Location: Unspecified
(0.0000°N, 0.0000°E)
Time: 07:52:44
(UTC+00:00)

DX 1 - Visible Passes

Search period start: 15 May 2021 00:00
Search period end: 25 May 2021 00:00
Orbit: 618 x 631 km, 98.5° (Epoch: 14 May)

Date Brightness Start Highest point End Pass type
(mag) Time Alt. Az. Time Alt. Az. Time Alt. Az.
15 May ? 19:01:21 10° N 19:05:39 74° WNW 19:09:57 10° SSW visible
16 May ? 19:20:15 10° N 19:24:15 38° WNW 19:28:16 10° SSW visible
17 May ? 19:39:34 10° NNW 19:42:51 21° WNW 19:46:09 10° SW visible
18 May ? 18:21:55 10° NE 18:25:35 27° ESE 18:29:15 10° SSE visible
18 May ? 19:59:52 10° NW 20:01:27 12° WNW 20:03:02 10° W visible
19 May ? 18:40:00 10° NNE 18:44:10 50° ESE 18:48:22 10° S visible
20 May ? 18:58:28 10° N 19:02:46 85° WNW 19:07:07 10° SSW visible
21 May ? 19:17:16 10° N 19:21:23 45° WNW 19:25:31 10° SSW visible
22 May ? 19:36:29 10° NNW 19:39:59 25° WNW 19:43:31 10° SW visible
23 May ? 18:19:14 10° NE 18:22:43 24° ESE 18:26:13 10° SSE visible
23 May ? 19:56:24 10° NW 19:58:35 14° WNW 20:00:46 10° WSW visible
24 May ? 18:37:12 10° NNE 18:41:18 43° ESE 18:45:26 10° S visible
